Flag for U.S.A. Weather past 2 weeks in Germantown, Maryland, U.S.A.

Now
50 °F

Clear.


Feels Like: 50 °F
Forecast: 50 / 69 °F
Wind: No wind

Location: Frederick Municipal Airport

Current Time: Sep 24, 2014 at 1:02:09 AM

Latest Report: Sep 24, 2014 at 12:30 AM


Visibility: 7 mi

Pressure: 30.43 "Hg

Humidity: 94%

Dew point: 48 °F

Location of GermantownLocation

Historic Weather in Germantown — Graph

°F

Germantown temperature yesterday

Maximum temperature yesterday: 73 °F (at 2:45 PM)
Minimum temperature yesterday: 45 °F (at 3:50 AM)
Average temperature yesterday: 53 °F

Past Weeks' High & Low Weather Summary

 TemperatureHumidityPressure
High90 °F (Sep 11, 2:45 PM)100% (Sep 12, 6:45 AM)30.43 "Hg (Sep 12, 6:45 AM)
Low45 °F (Sep 23, 3:50 AM)34% (Sep 17, 3:45 PM)29.66 "Hg (Sep 21, 4:50 PM)
Average64 °F81%30.13 "Hg
* Reported Sep 8 11:10 PM — Sep 23 11:50 PM, Germantown, Weather by CustomWeather, © 2014

Note: Actual official high and low records may vary slightly from our data, if they occured in-between our weather recording intervals... More about our weather records

Advertising

Germantown weather history for previous 24 hours

 ConditionsComfort  
Time TempWeatherWind HumidityBarometerVisibility
11:50 PM
Sep 23
50 °FClear.No wind100%30.43 "Hg10 mi
11:30 PM52 °FClear.No wind100%30.41 "Hg10 mi
10:50 PM52 °FClear.No wind94%30.41 "Hg10 mi
10:30 PM54 °FClear.No wind94%30.41 "Hg10 mi
10:10 PM52 °FClear.3 mph100%30.41 "Hg10 mi
9:50 PM54 °FClear.No wind100%30.40 "Hg10 mi
9:30 PM54 °FClear.No wind94%30.40 "Hg10 mi
9:10 PM54 °FClear.No wind94%30.39 "Hg10 mi
8:50 PM54 °FClear.No wind94%30.38 "Hg10 mi
7:50 PM57 °FSunny.No wind88%30.37 "Hg10 mi
6:45 PM64 °FSunny.No wind68%30.36 "Hg10 mi
5:45 PM72 °FSunny.No wind41%30.35 "Hg10 mi
4:45 PM73 °FSunny.No wind38%30.34 "Hg10 mi
2:45 PM73 °FSunny.6 mph36%30.36 "Hg10 mi
12:54 PM70 °FSunny.5 mph38%30.40 "Hg10 mi
11:48 AM66 °FSunny.No wind49%30.39 "Hg10 mi
10:52 AM64 °FSunny.No wind52%30.40 "Hg10 mi
9:48 AM61 °FSunny.3 mph59%30.39 "Hg10 mi
8:45 AM54 °FSunny.No wind77%30.38 "Hg10 mi
7:50 AM46 °FClear.No wind93%30.37 "Hg10 mi
6:50 AM46 °FClear.No wind93%30.35 "Hg10 mi
6:30 AM45 °FClear.3 mph93%30.34 "Hg10 mi
6:10 AM45 °FClear.5 mph93%30.33 "Hg10 mi
5:50 AM45 °FClear.No wind100%30.32 "Hg10 mi
5:30 AM45 °FClear.No wind93%30.32 "Hg10 mi
5:10 AM45 °FClear.No wind93%30.31 "Hg10 mi
4:50 AM45 °FClear.No wind93%30.30 "Hg10 mi
4:30 AM45 °FClear.3 mph93%30.30 "Hg10 mi
4:10 AM45 °FClear.No wind93%30.30 "Hg10 mi
3:50 AM45 °FClear.No wind100%30.29 "Hg10 mi
3:30 AM46 °FClear.3 mph93%30.29 "Hg10 mi
3:10 AM46 °FClear.No wind93%30.28 "Hg10 mi
2:50 AM46 °FClear.No wind87%30.28 "Hg10 mi
2:25 AM50 °FClear.No wind82%30.28 "Hg10 mi
2:05 AM50 °FClear.No wind82%30.28 "Hg10 mi
1:45 AM52 °FClear.No wind77%30.29 "Hg10 mi
1:25 AM54 °FClear.3 mph67%30.28 "Hg10 mi
1:05 AM54 °FClear.3 mph67%30.27 "Hg10 mi
Weather by CustomWeather, © 2014

See weather overviewHow to use our weather pages